Location: Unspecified
(44.0704°N, 88.6889°W)
Time: 07:23:58
(UTC+02:00)

Transit 2A - Pass Details

Date: 21 June 2019
Orbit: 600 x 959 km, 66.7° (Epoch: 13 October)

Event Time Altitude Azimuth Distance (km) Brightness Sun altitude
Rises 11:27:42 0° 287° (WNW) 3,635 9.2 -7.0°
Reaches altitude 10° 11:32:47 10° 322° (NW) 2,657 8.9 -6.3°
Maximum altitude 11:34:25 11° 337° (NNW) 2,568 9.0 -6.1°
Drops below altitude 10° 11:36:02 10° 353° (N) 2,620 9.3 -5.9°
Sets 11:40:55 0° 28° (NNE) 3,483 10.9 -5.2°
